Location: Newark
(50.0306°N, 2.3272°E)
Time: 06:58:49
(UTC+00:00)

A-11 Canister half - Pass Details

Date: 15 December 2019
Orbit: 1525 x 1684 km, 47.3° (Epoch: 26 January)

Event Time Altitude Azimuth Distance (km) Brightness Sun altitude
Rises 09:24:35 0° 283° (WNW) 4,942 11.2 10.3°
Reaches altitude 10° 09:27:48 10° 280° (W) 3,951 10.8 10.6°
Maximum altitude 09:37:43 61° 204° (SSW) 1,857 9.9 11.4°
Drops below altitude 10° 09:47:25 10° 127° (SE) 3,869 12.5 12.2°
Sets 09:50:33 0° 124° (SE) 4,834 12.8 12.4°
